Location: Bidart
(43.4376°N, 1.5913°W)
Time: 22:19:31
(UTC+00:00)

Cosmos 1766 Rocket - Pass Details

Date: 19 May 2025
Orbit: 599 x 626 km, 82.5° (Epoch: 11 June)

Event Time Altitude Azimuth Distance (km) Brightness Sun altitude
Rises 21:55:22 0° 359° (N) 2,901 8.0 -20.2°
Reaches altitude 10° 21:57:46 10° 8° (N) 1,986 6.8 -20.4°
Maximum altitude 22:01:50 37° 76° (ENE) 960 4.3 -20.8°
Enters shadow 22:02:15 36° 90° (E) 974 4.3 -20.8°
